Temp
-5 -5 -5 -5 -5 -5 -6 -6 -6 -6 -6 -7 -7 -7 -7 -7 -8 -8 -8 -8 -8 -8 -8 -7 -7 -7 -7 -7 -7 -7 -7 -7 -7 -7 -7 -7 -7 -7 -7 -7 -6 -7 -7
-5 -5 -5 -5 -5 -5 -6 -6 -6 -7 -7 -7 -7 -7 -7 -8 -8 -8 -7 -7 -7 -7 -7 -8 -8 -8 -7 -7 -7 -7 -7 -7 -6 -7 -7 -7 -7 -7 -7 -7 -7 -7 -7
-4 -5 -5 -5 -5 -5 -6 -6 -6 -6 -7 -7 -7 -7 -7 -7 -7 -7 -7 -7 -7 -7 -7 -7 -7 -7 -7 -7 -7 -7 -7 -7 -7 -7 -7 -7 -7 -7 -7 -6 -7 -7 -7
-4 -5 -5 -5 -5 -5 -6 -6 -6 -6 -7 -7 -7 -7 -7 -7 -7 -7 -7 -7 -7 -7 -7 -7 -7 -7 -7 -7 -7 -7 -6 -7 -7 -7 -7 -7 -7 -7 -7 -7 -7 -7 -7
-4 -4 -4 -5 -5 -5 -6 -6 -6 -6 -6 -7 -7 -7 -7 -7 -7 -7 -7 -7 -7 -6 -7 -7 -7 -7 -7 -7 -7 -7 -7 -7 -7 -7 -7 -7 -7 -7 -8 -8 -8 -8 -7
-4 -4 -4 -5 -5 -5 -5 -5 -5 -6 -7 -7 -7 -7 -7 -6 -6 -6 -6 -6 -6 -6 -6 -6 -6 -6 -7 -7 -7 -7 -7 -7 -6 -6 -6 -6 -7 -7 -8 -8 -7 -7 -7
-4 -4 -4 -4 -4 -4 -5 -5 -6 -6 -7 -7 -6 -6 -6 -6 -6 -6 -6 -6 -7 -7 -7 -6 -6 -6 -6 -6 -6 -6 -7 -7 -7 -7 -6 -6 -6 -7 -7 -8 -7 -7 -7
-4 -4 -4 -4 -4 -4 -5 -5 -6 -6 -6 -6 -6 -6 -6 -6 -6 -7 -6 -6 -7 -7 -6 -7 -7 -7 -7 -7 -7 -7 -7 -7 -7 -6 -6 -6 -6 -6 -6 -7 -7 -7 -6
-4 -4 -4 -5 -5 -5 -5 -5 -5 -6 -6 -6 -6 -6 -6 -6 -6 -6 -6 -6 -6 -6 -7 -7 -7 -6 -6 -7 -7 -7 -7 -7 -6 -6 -6 -6 -6 -6 -6 -6 -6 -6 -6
-4 -4 -4 -4 -4 -5 -5 -5 -5 -5 -6 -6 -6 -6 -6 -6 -6 -6 -6 -6 -6 -6 -7 -7 -7 -7 -7 -6 -7 -7 -7 -7 -6 -5 -5 -6 -6 -6 -6 -6 -6 -6 -6
-4 -4 -4 -4 -5 -5 -5 -5 -5 -5 -5 -5 -6 -6 -6 -6 -6 -6 -6 -6 -6 -6 -6 -6 -6 -7 -7 -7 -6 -6 -7 -7 -5 -6 -6 -6 -6 -6 -6 -6 -6 -6 -6
-4 -5 -5 -5 -5 -5 -5 -5 -5 -5 -5 -5 -5 -5 -5 -5 -5 -6 -6 -6 -6 -6 -6 -6 -6 -6 -6 -7 -6 -6 -6 -6 -6 -6 -6 -6 -5 -6 -6 -6 -6 -6 -6
-4 -4 -4 -4 -5 -5 -5 -5 -5 -5 -5 -5 -5 -5 -5 -5 -6 -6 -6 -6 -6 -6 -6 -6 -6 -6 -6 -6 -6 -6 -6 -6 -6 -6 -6 -6 -6 -6 -6 -6 -6 -6 -6
-4 -4 -4 -4 -4 -5 -5 -5 -5 -5 -5 -5 -5 -5 -5 -5 -5 -6 -6 -6 -6 -6 -6 -6 -6 -6 -6 -6 -6 -6 -6 -6 -5 -6 -6 -6 -6 -6 -6 -6 -6 -6 -6
-4 -4 -4 -4 -4 -4 -4 -5 -5 -5 -5 -5 -5 -5 -5 -5 -5 -5 -5 -5 -5 -5 -6 -6 -6 -6 -6 -6 -6 -6 -6 -6 -5 -5 -6 -6 -6 -6 -6 -6 -6 -6 -6
-4 -4 -4 -4 -4 -4 -4 -4 -5 -5 -5 -5 -5 -5 -5 -5 -5 -5 -5 -5 -5 -5 -6 -5 -5 -6 -6 -6 -6 -6 -6 -6 -5 -5 -5 -6 -6 -6 -5 -5 -6 -6 -6
-4 -4 -4 -4 -4 -4 -4 -4 -4 -4 -4 -5 -5 -5 -5 -5 -5 -5 -5 -5 -6 -6 -6 -6 -6 -6 -5 -5 -6 -6 -6 -5 -5 -5 -5 -5 -5 -5 -5 -5 -6 -6 -6
-4 -4 -4 -4 -4 -4 -4 -4 -4 -4 -4 -5 -5 -5 -5 -5 -5 -5 -6 -6 -5 -5 -5 -5 -5 -6 -6 -6 -6 -6 -6 -5 -5 -5 -5 -5 -5 -6 -5 -5 -5 -6 -6
-4 -4 -4 -4 -4 -4 -4 -4 -4 -4 -4 -5 -5 -5 -5 -5 -5 -5 -5 -5 -5 -5 -5 -5 -5 -6 -6 -6 -6 -6 -6 -6 -5 -5 -5 -5 -5 -5 -5 -5 -5 -6 -6
-3 -4 -4 -4 -4 -4 -4 -4 -4 -4 -4 -4 -4 -5 -5 -5 -5 -5 -5 -5 -5 -5 -5 -6 -6 -6 -6 -6 -6 -6 -6 -5 -6 -6 -6 -6 -6 -6 -6 -6 -6 -6 -6
-2 -3 -3 -4 -4 -4 -4 -4 -4 -4 -4 -4 -4 -5 -5 -5 -5 -5 -5 -5 -5 -5 -5 -5 -5 -6 -6 -6 -6 -7 -7 -6 -6 -6 -6 -6 -6 -6 -6 -7 -7 -6 -6
-2 -2 -2 -3 -3 -4 -4 -4 -4 -4 -4 -4 -4 -4 -4 -4 -4 -4 -4 -5 -5 -5 -5 -5 -5 -5 -5 -6 -6 -6 -6 -6 -7 -7 -7 -7 -6 -6 -7 -7 -7 -7 -7
-2 -2 -2 -3 -3 -3 -3 -4 -4 -4 -4 -3 -3 -3 -4 -4 -4 -5 -5 -5 -5 -5 -5 -5 -5 -5 -5 -5 -6 -6 -6 -6 -6 -6 -7 -7 -7 -7 -7 -7 -7 -7 -7
-2 -3 -3 -3 -3 -3 -3 -3 -3 -3 -3 -3 -4 -4 -4 -5 -5 -5 -5 -5 -5 -5 -6 -6 -6 -6 -6 -6 -6 -6 -6 -6 -7 -7 -8 -7 -7 -8 -8 -8 -7 -7 -7
-2 -2 -3 -3 -3 -3 -3 -4 -3 -3 -4 -4 -4 -4 -5 -5 -5 -5 -5 -6 -5 -6 -6 -6 -6 -6 -6 -7 -6 -6 -6 -6 -6 -7 -8 -8 -9 -8 -8 -8 -8 -8 -7
-3 -3 -3 -3 -3 -4 -4 -4 -4 -4 -4 -4 -4 -4 -5 -5 -5 -5 -6 -6 -6 -6 -6 -6 -6 -6 -7 -7 -7 -7 -7 -7 -7 -7 -7 -8 -8 -9 -9 -8 -8 -8 -8
Height
5912 5913 5914 5915 5915 5915 5916 5917 5918 5919 5920 5921 5922 5922 5922 5922 5922 5922 5922 5921 5921 5921 5921 5921 5921 5921 5920 5920 5919 5918 5917 5918 5918 5917 5917 5916 5917 5917 5917 5917 5917 5917 5918
5913 5915 5916 5918 5918 5917 5918 5920 5921 5921 5922 5922 5922 5923 5923 5923 5923 5923 5923 5923 5922 5922 5923 5922 5921 5920 5920 5920 5919 5918 5918 5918 5917 5917 5917 5916 5917 5916 5916 5916 5916 5916 5917
5915 5917 5918 5920 5920 5920 5921 5923 5924 5924 5923 5923 5923 5924 5924 5925 5925 5925 5924 5924 5924 5923 5923 5922 5922 5921 5921 5921 5920 5920 5920 5918 5918 5918 5917 5917 5916 5914 5913 5915 5915 5915 5916
5917 5918 5920 5921 5922 5922 5923 5924 5926 5925 5924 5925 5925 5925 5926 5925 5925 5925 5925 5925 5925 5924 5924 5924 5924 5923 5923 5923 5922 5922 5922 5921 5921 5920 5919 5919 5917 5916 5914 5914 5914 5914 5915
5920 5920 5921 5923 5923 5923 5924 5925 5927 5927 5926 5926 5927 5927 5927 5926 5927 5927 5926 5926 5925 5925 5925 5925 5924 5924 5924 5923 5923 5923 5923 5922 5921 5920 5920 5918 5917 5916 5914 5913 5912 5913 5912
5922 5922 5923 5925 5926 5927 5926 5927 5928 5928 5928 5928 5928 5928 5928 5928 5928 5928 5928 5927 5926 5926 5925 5925 5925 5924 5924 5924 5925 5924 5923 5922 5922 5921 5920 5918 5917 5915 5914 5912 5910 5911 5911
5924 5924 5925 5926 5928 5928 5929 5929 5929 5930 5930 5929 5930 5930 5930 5930 5930 5930 5930 5929 5928 5927 5926 5926 5925 5924 5924 5925 5926 5925 5925 5923 5922 5922 5920 5919 5918 5917 5915 5912 5910 5909 5911
5925 5926 5927 5929 5929 5930 5930 5931 5931 5931 5931 5931 5932 5932 5932 5932 5932 5932 5932 5931 5929 5928 5928 5926 5925 5924 5922 5923 5924 5924 5923 5922 5922 5922 5921 5920 5919 5918 5916 5913 5910 5909 5910
5928 5928 5929 5930 5931 5932 5932 5933 5933 5933 5933 5933 5934 5934 5934 5934 5934 5934 5933 5931 5930 5930 5930 5928 5924 5921 5921 5921 5923 5923 5923 5922 5922 5920 5919 5919 5919 5918 5917 5914 5911 5911 5910
5930 5931 5932 5932 5933 5934 5934 5935 5936 5935 5935 5936 5936 5936 5936 5935 5935 5935 5935 5933 5932 5932 5931 5925 5921 5925 5924 5924 5924 5923 5922 5920 5919 5919 5918 5917 5917 5917 5917 5916 5913 5911 5910
5931 5932 5934 5934 5935 5936 5936 5937 5937 5937 5937 5937 5937 5937 5937 5936 5936 5936 5936 5934 5933 5932 5930 5923 5929 5928 5926 5925 5923 5923 5920 5918 5917 5918 5917 5916 5915 5915 5915 5914 5913 5912 5910
5931 5933 5935 5935 5936 5937 5937 5938 5938 5938 5938 5938 5938 5938 5937 5937 5937 5938 5937 5936 5934 5933 5931 5931 5930 5929 5928 5926 5924 5923 5921 5919 5918 5918 5916 5913 5912 5913 5913 5913 5911 5910 5909
5932 5934 5935 5937 5937 5938 5938 5939 5939 5939 5939 5939 5939 5939 5939 5939 5938 5937 5937 5936 5935 5934 5933 5933 5932 5931 5929 5927 5926 5925 5923 5921 5919 5918 5916 5913 5912 5913 5913 5912 5909 5910 5909
5933 5934 5936 5937 5938 5939 5939 5939 5939 5940 5940 5940 5940 5940 5939 5938 5938 5937 5937 5936 5935 5935 5934 5933 5932 5931 5930 5928 5927 5926 5924 5922 5920 5919 5918 5916 5914 5913 5912 5911 5909 5907 5907
5934 5935 5937 5937 5939 5940 5940 5940 5941 5941 5941 5941 5941 5941 5941 5940 5939 5938 5937 5937 5936 5935 5935 5933 5933 5932 5930 5929 5928 5927 5925 5923 5922 5920 5919 5917 5916 5915 5912 5909 5907 5905 5903
5935 5936 5937 5938 5940 5941 5941 5941 5941 5942 5942 5942 5942 5942 5942 5941 5939 5938 5938 5938 5937 5936 5935 5934 5934 5933 5931 5930 5928 5927 5925 5924 5923 5922 5920 5918 5917 5915 5912 5907 5905 5904 5903
5935 5937 5938 5939 5940 5941 5941 5942 5942 5942 5943 5943 5943 5942 5942 5942 5940 5939 5939 5939 5937 5936 5936 5935 5934 5932 5931 5930 5929 5928 5926 5925 5923 5921 5920 5918 5916 5915 5913 5909 5906 5905 5904
5935 5936 5938 5939 5939 5940 5941 5942 5943 5943 5943 5943 5943 5943 5943 5943 5942 5940 5939 5938 5938 5937 5936 5935 5934 5932 5931 5929 5928 5927 5926 5925 5923 5921 5920 5918 5916 5915 5913 5910 5907 5904 5903
5936 5936 5937 5938 5938 5940 5941 5942 5942 5943 5943 5943 5943 5943 5943 5944 5943 5942 5941 5940 5940 5938 5937 5935 5934 5933 5932 5930 5928 5926 5925 5924 5922 5920 5918 5917 5915 5914 5912 5910 5908 5905 5904
5936 5935 5936 5938 5939 5940 5941 5942 5943 5943 5943 5944 5944 5944 5944 5944 5943 5943 5942 5941 5940 5939 5937 5936 5935 5933 5931 5930 5928 5927 5925 5923 5921 5918 5916 5914 5913 5911 5910 5908 5906 5905 5903
5936 5937 5937 5938 5940 5941 5941 5943 5944 5945 5945 5944 5945 5945 5944 5944 5943 5943 5942 5942 5941 5940 5939 5936 5934 5932 5930 5929 5928 5927 5925 5922 5920 5918 5915 5913 5911 5909 5907 5906 5904 5903 5901
5939 5939 5939 5940 5941 5942 5943 5945 5946 5946 5947 5946 5945 5945 5944 5944 5943 5942 5942 5941 5940 5939 5937 5936 5934 5932 5930 5928 5926 5925 5924 5923 5919 5917 5914 5913 5911 5908 5906 5903 5902 5901 5900
5940 5940 5941 5942 5943 5944 5944 5945 5946 5947 5947 5947 5946 5945 5944 5943 5943 5942 5941 5940 5939 5938 5936 5935 5932 5930 5929 5928 5926 5925 5922 5919 5916 5913 5912 5910 5908 5906 5903 5902 5899 5898 5897
5942 5942 5943 5943 5944 5945 5946 5946 5947 5948 5948 5948 5948 5947 5945 5943 5942 5940 5939 5938 5937 5936 5935 5933 5932 5929 5927 5924 5923 5921 5919 5917 5915 5912 5906 5904 5903 5902 5900 5897 5895 5894 5893
5942 5944 5944 5945 5945 5945 5945 5946 5946 5947 5946 5946 5945 5945 5943 5941 5939 5938 5937 5935 5934 5933 5932 5930 5929 5927 5924 5921 5919 5916 5914 5911 5909 5908 5905 5902 5899 5895 5892 5891 5889 5887 5887
5941 5942 5943 5943 5944 5944 5944 5944 5944 5944 5943 5942 5941 5940 5939 5938 5936 5935 5933 5932 5930 5928 5926 5924 5922 5920 5917 5914 5911 5909 5907 5904 5900 5899 5899 5895 5893 5891 5888 5884 5881 5880 5879
Wind_Speed
15 14 14 15 15 14 15 15 14 14 13 10 11 10 9 8 7 7 6 5 5 6 6 5 5 4 2 2 1 1 2 1 1 1 2 3 4 6 7 8 7 6 4
18 15 14 13 14 14 14 14 14 14 14 12 11 11 9 8 8 7 6 7 7 6 6 5 4 4 3 4 3 2 1 0 0 2 3 4 5 7 8 10 10 9 7
18 18 15 13 14 13 13 13 13 13 14 12 12 12 12 10 10 9 8 8 8 8 7 6 6 6 6 7 6 6 6 5 4 3 2 4 4 6 9 8 10 9 10
19 20 18 16 16 14 14 14 13 13 13 12 12 13 13 12 12 12 11 11 10 9 9 8 7 6 8 8 8 6 7 7 6 7 7 7 7 8 5 4 8 11 11
18 21 20 19 19 19 17 17 15 15 14 13 13 13 13 13 13 12 11 11 10 9 9 7 6 6 6 7 8 7 5 6 6 5 6 7 8 8 4 3 6 11 10
18 20 20 19 19 21 23 21 19 17 15 13 14 14 13 14 13 12 11 10 10 9 9 7 7 7 6 6 8 8 6 7 6 6 6 5 6 8 8 6 5 8 10
17 17 17 16 16 17 19 19 18 17 15 15 16 15 14 14 13 13 12 11 9 8 7 7 7 7 7 7 8 9 7 5 4 4 5 5 6 7 8 7 8 4 9
18 17 15 14 14 14 15 16 16 16 16 17 17 17 17 14 13 13 12 10 7 6 6 4 6 6 4 7 8 8 5 3 4 5 4 5 7 8 11 11 8 6 5
15 14 15 13 13 13 13 14 14 14 14 15 14 15 13 13 11 12 12 14 14 11 10 5 3 11 11 11 8 9 8 6 3 4 3 6 7 8 10 10 7 3 1
14 11 12 12 12 12 12 13 14 13 12 13 13 12 11 10 11 11 11 12 13 14 21 30 24 14 14 12 15 14 15 16 6 4 5 5 6 7 9 11 10 3 4
15 13 11 11 11 11 11 11 12 12 12 11 11 11 10 10 10 11 12 11 9 10 11 10 12 12 15 12 13 15 17 11 1 3 10 10 8 9 8 7 9 6 2
16 14 12 11 10 10 10 11 11 11 11 12 12 11 11 10 10 11 12 12 12 13 12 11 11 12 11 10 11 13 16 17 9 8 14 15 9 7 11 8 6 6 4
14 13 13 12 11 11 11 11 10 10 10 11 11 10 9 9 9 10 10 11 11 10 10 10 10 11 11 10 11 13 14 14 12 13 17 19 9 8 10 10 9 6 4
13 12 12 12 11 10 10 10 9 9 9 9 9 9 9 10 10 10 9 9 10 10 10 9 9 9 9 9 11 12 11 12 12 13 12 17 17 11 10 13 14 9 6
12 12 11 11 10 10 9 8 8 8 9 10 9 9 9 9 10 10 10 10 11 11 11 10 11 11 10 9 11 11 11 11 12 13 14 14 12 12 15 17 16 16 13
11 11 10 10 9 9 9 9 9 8 9 9 9 8 8 8 9 10 10 11 12 12 12 11 11 11 12 11 11 12 11 10 10 11 11 13 15 16 19 18 16 10 11
9 10 10 10 10 9 8 8 8 8 8 8 8 9 9 9 9 10 10 9 10 11 11 11 11 11 11 12 12 12 13 13 14 13 11 12 13 15 18 18 18 12 8
6 6 8 9 8 7 8 7 7 8 9 9 10 9 9 8 6 6 6 7 9 10 12 13 13 12 11 11 11 12 13 14 14 14 14 13 14 16 16 16 17 17 13
5 5 5 6 7 9 9 9 9 9 10 9 8 7 7 7 6 5 5 6 7 9 10 11 11 11 11 11 10 9 9 9 9 11 14 15 16 16 17 16 16 16 16
6 6 6 8 11 11 10 9 9 9 9 8 6 4 2 2 4 4 4 5 5 7 8 11 12 10 11 11 13 14 12 11 10 10 10 13 15 18 18 18 16 15 15
9 10 9 10 11 10 9 8 7 6 4 4 4 3 2 3 2 2 5 7 9 11 12 14 15 15 16 15 13 13 14 18 17 16 13 13 15 16 17 18 18 16 17
10 10 10 10 10 10 9 8 7 6 5 4 2 2 3 3 4 4 6 8 9 10 11 12 13 14 15 16 17 18 20 20 20 18 19 17 15 18 18 16 15 16 16
8 9 8 7 7 8 9 7 6 4 2 1 2 1 3 4 6 7 6 8 9 9 10 11 12 14 15 15 16 17 19 23 24 26 23 20 20 20 21 19 16 15 16
9 9 8 6 5 5 4 4 4 4 3 1 1 1 3 4 6 7 7 8 9 10 11 13 15 16 18 19 20 20 21 21 24 24 28 28 27 22 21 23 23 20 19
12 10 8 7 6 5 3 2 1 2 3 3 3 3 4 6 7 8 10 11 13 14 16 17 17 20 22 25 26 25 27 28 27 27 27 28 28 30 28 26 28 27 25
14 13 10 8 6 4 3 4 5 6 7 8 7 9 9 9 10 10 11 14 17 21 23 26 28 30 30 29 31 34 34 34 35 33 31 35 36 34 30 33 35 33 33
Wind_Direction
113 115 120 120 119 118 116 114 115 113 109 112 112 111 107 101 96 95 105 109 107 110 111 111 107 107 119 101 99 203 221 208 273 302 309 278 254 242 245 242 234 225 204
111 116 119 118 119 119 117 118 117 113 108 105 104 103 100 98 94 91 93 99 97 97 102 109 117 113 96 83 84 112 122 143 275 288 301 309 301 260 238 232 230 238 226
117 120 119 117 114 115 115 115 111 111 112 113 106 100 97 96 97 96 98 94 92 91 95 95 88 83 77 76 80 75 72 71 61 56 17 351 338 277 216 239 239 232 236
120 118 117 115 107 106 116 114 118 118 114 110 110 107 104 103 101 103 104 101 95 91 91 83 62 61 67 65 60 59 65 68 73 81 67 42 27 31 20 222 243 246 243
117 115 114 111 103 98 106 116 119 113 113 117 116 113 110 107 106 105 103 101 94 88 82 72 65 61 52 60 62 53 51 44 49 44 34 43 37 32 355 319 277 257 247
121 116 113 111 105 101 104 107 105 102 105 115 116 120 114 110 108 105 101 97 93 93 92 90 77 67 56 49 64 61 45 43 47 40 34 41 35 39 10 346 314 259 248
124 118 114 111 105 102 101 103 102 98 98 111 119 119 117 112 109 103 94 86 82 84 88 88 83 77 78 77 74 71 53 29 30 30 23 13 13 20 14 11 30 244 237
124 122 120 114 107 101 100 101 101 101 100 112 118 118 111 107 100 85 109 70 64 107 100 92 95 91 94 105 93 74 67 49 8 358 2 354 359 8 19 15 31 78 186
130 126 126 122 116 110 107 109 108 104 102 102 118 118 111 98 90 84 76 69 81 72 50 18 303 59 50 70 77 62 28 323 295 295 327 339 348 354 0 19 20 49 96
131 128 125 127 127 123 118 116 114 110 110 108 110 113 117 107 94 86 83 84 72 54 41 32 37 39 35 31 56 32 16 7 259 276 305 305 317 335 347 353 3 354 17
127 128 129 130 134 130 124 121 119 117 115 113 112 111 105 96 86 79 72 66 55 44 52 353 12 46 56 62 42 29 25 13 35 355 333 305 296 303 310 337 347 338 14
135 135 131 126 128 133 130 126 123 118 113 110 111 108 101 89 77 73 67 64 56 50 44 41 35 35 42 31 31 24 28 39 55 12 346 345 271 275 293 299 316 323 301
138 138 135 130 134 133 133 130 126 124 115 109 106 108 102 91 80 69 63 58 56 49 43 35 29 25 22 18 16 22 18 23 27 17 9 12 346 276 278 293 281 281 293
139 139 138 139 138 136 134 134 134 124 117 115 114 108 102 95 84 74 63 51 45 43 34 27 21 22 19 16 2 11 12 9 10 16 8 9 12 7 313 304 297 249 253
143 143 143 143 143 142 138 136 126 124 119 118 115 107 98 89 81 71 62 55 51 50 44 29 19 20 15 14 359 5 8 2 1 5 4 2 9 356 336 324 294 264 276
147 144 142 140 138 135 138 136 131 126 123 119 116 105 87 79 76 72 62 52 51 51 49 44 38 28 19 16 6 356 357 354 359 7 5 359 353 350 346 336 343 293 279
144 143 144 142 138 138 137 136 135 135 130 124 114 100 88 83 81 73 62 61 56 56 57 56 51 42 34 26 16 5 357 351 351 358 358 354 351 348 347 345 329 325 300
150 141 147 153 153 151 154 146 141 136 134 126 114 107 95 87 85 76 65 59 43 59 60 58 55 50 45 37 28 18 7 0 357 357 356 356 351 345 345 347 342 332 310
177 184 161 155 144 138 141 151 147 139 137 131 125 117 107 79 59 55 65 43 44 47 42 37 33 27 26 27 26 25 14 5 358 355 351 349 352 349 344 343 345 342 336
144 149 136 126 125 133 136 141 148 145 140 137 136 130 107 34 44 50 49 49 38 23 18 25 15 14 11 8 360 353 349 344 344 346 349 348 343 339 340 339 336 332 337
133 135 134 125 132 143 147 148 153 160 163 148 134 108 74 62 39 23 28 25 8 357 354 354 354 352 355 353 347 345 342 337 330 325 324 328 328 326 328 329 328 326 316
124 139 140 131 134 146 156 165 173 172 174 179 205 297 310 335 351 7 0 346 341 337 342 347 349 346 349 344 336 330 326 328 321 321 323 321 318 313 316 314 314 309 311
149 145 145 147 153 146 142 145 153 155 174 223 281 342 29 14 14 2 357 352 346 345 338 335 339 335 332 333 329 323 318 319 319 315 312 308 308 305 305 305 303 293 287
179 166 157 154 151 156 164 170 164 145 150 132 47 38 358 357 2 6 355 352 343 343 338 335 331 336 332 330 326 320 315 309 307 307 309 309 308 301 300 299 294 291 289
196 191 181 174 173 175 173 198 279 301 313 322 326 326 321 332 342 346 340 339 339 339 335 335 331 329 325 324 320 316 313 311 310 307 303 304 303 306 303 297 294 290 282
195 193 192 191 197 204 216 255 281 291 294 294 304 311 319 322 323 334 335 339 338 333 329 325 322 319 317 313 312 315 310 310 309 305 302 303 306 306 300 302 297 289 284